Simultaneous Nadir Overpasses (SNOs) Predictions

Prediction of SNOs between LANDSAT-8 and METOP-B Satellite Orbit:

Table of predicted SNOs for the next 14.0 days since TLE Epoch: 7/27/2024
Index Date (LANDSAT-8) Time (LANDSAT-8) Lat,Lon (LANDSAT-8) SZA (LANDSAT-8 ) Date (METOP-B) Time (METOP-B) Lat,Lon (METOP-B) SZA (METOP-B ) Distance(km) Time Diff (sec)
1 07/27/2024 19:21:33 81.38, -65.93 64.80 07/27/2024 19:20:43 81.37, -66.09 64.76 2.74 50
2 07/27/2024 20:10:59 -81.39, 101.95 115.16 07/27/2024 20:11:22 -81.38, 102.04 115.14 1.65 23
3 07/30/2024 14:55:48 81.38, 0.52 65.48 07/30/2024 14:55:11 81.38, 0.52 65.46 0.23 37
4 07/30/2024 15:45:14 -81.39, 168.42 114.48 07/30/2024 15:45:51 -81.38, 168.27 114.49 2.68 37
5 08/02/2024 10:30:02 81.38, 67.09 66.21 08/02/2024 10:29:39 81.38, 67.02 66.19 1.35 23
6 08/02/2024 11:19:29 -81.38,-125.37 113.80 08/02/2024 11:20:19 -81.38,-125.21 113.76 2.82 50
7 08/05/2024 06:04:15 81.38, 133.40 66.94 08/05/2024 06:04:06 81.38, 133.43 66.94 0.58 9
8 08/05/2024 06:53:41 -81.39, -58.66 113.01 08/05/2024 06:54:46 -81.38, -58.78 113.00 2.19 65
9 08/08/2024 00:49:02 -81.37, 32.12 112.29 08/08/2024 00:47:54 -81.37, 32.21 112.31 1.48 68



Historial Predications of SNOs between LANDSAT-8 and METOP-B
